{"data":{"norad_id":66610,"intl_designator":"2025-270Y","name":"STARLINK-35680","alt_names":[],"object_type":"PAYLOAD","status":"ACTIVE","operator":null,"country":"US","launch_date":"2025-11-22","launch_site_code":"AFETR","launch_vehicle":null,"mission":null,"orbit_class":"UNKNOWN","rcs_meters":null,"size_class":null,"mass_kg":null,"dimensions":null,"purposes":["comms"],"wikipedia_slug":null,"has_3d_model":false,"image_url":null,"decayed_at":null,"tle_current":{"epoch":"2026-09-20T09:30:56.981376Z","epoch_age_seconds":95477,"freshness":"FRESH","line1":"1 66610U 25270Y   26263.39649284  .00012853  00000+0  47578-3 0  9991","line2":"2 66610  42.9995  36.5842 0001432 276.1098  83.9590 15.27579982 47594","mean_motion":15.27579982,"eccentricity":0.0001432,"inclination_deg":42.9995,"raan_deg":36.5842,"arg_perigee_deg":276.1098,"mean_anomaly_deg":83.959,"bstar":0.00047578,"rev_number":4759,"period_min":94.266749824429,"perigee_km":482.06662808146,"apogee_km":484.0316717948,"semimajor_km":6861.1861499381,"source":"CELESTRAK","updated_at":"2026-09-21T09:00:35.980322Z"}}}